This is the latest recevied weather packets stored in our database for station/object KY4GW. If no packets are shown the sender has not sent any weather packets the latest 10 day(s).
| Time | Temp. | Humidity | Pressure | Rain* | Wind** | Luminosity | Snow |
|---|---|---|---|---|---|---|---|
| 1777768475 | 8.33° C | 67% | 1020.1 hPa | 0 mm | - | 2 W/m² | - |
| 1777768173 | 8.89° C | 66% | 1020.1 hPa | 0 mm | - | 3 W/m² | - |
| 1777767870 | 8.89° C | 62% | 1020.1 hPa | 0 mm | - | 4 W/m² | - |
| 1777767566 | 9.44° C | 61% | 1020.1 hPa | 0 mm | - | 5 W/m² | - |
| 1777767262 | 9.44° C | 60% | 1019.6 hPa | 0 mm | - | 8 W/m² | - |
| 1777766961 | 10° C | 58% | 1019.6 hPa | 0 mm | - | 11 W/m² | - |
| 1777766657 | 10.56° C | 59% | 1019.6 hPa | 0 mm | - | 15 W/m² | - |
| 1777766354 | 10.56° C | 56% | 1019.3 hPa | 0 mm | - | 19 W/m² | - |
| 1777766051 | 10.56° C | 53% | 1019.3 hPa | 0 mm | - | 21 W/m² | - |
| 1777765749 | 11.11° C | 56% | 1019.3 hPa | 0 mm | - | 28 W/m² | - |
| 1777765445 | 11.11° C | 51% | 1019.3 hPa | 0 mm | - | 36 W/m² | - |
| 1777765143 | 10.56° C | 55% | 1019.3 hPa | 0 mm | - | 37 W/m² | - |
| 1777764838 | 11.11° C | 57% | 1019.3 hPa | 0 mm | - | 39 W/m² | - |
| 1777764535 | 11.11° C | 58% | 1019.3 hPa | 0 mm | - | 43 W/m² | - |
| 1777764231 | 11.11° C | 52% | 1019.3 hPa | 0 mm | - | 45 W/m² | - |
| 1777763928 | 11.67° C | 52% | 1019.3 hPa | 0 mm | - | 51 W/m² | - |
| 1777763626 | 11.67° C | 51% | 1019.3 hPa | 0 mm | - | 67 W/m² | - |
| 1777763324 | 11.67° C | 50% | 1019.3 hPa | 0 mm | - | 83 W/m² | - |
| 1777763022 | 11.67° C | 50% | 1019.3 hPa | 0 mm | - | 85 W/m² | - |
| 1777762718 | 11.67° C | 54% | 1019.3 hPa | 0 mm | - | 85 W/m² | - |
| 1777762415 | 11.67° C | 52% | 1019.3 hPa | 0 mm | - | 87 W/m² | - |
| 1777762112 | 11.67° C | 51% | 1019.3 hPa | 0 mm | - | 95 W/m² | - |
| 1777761808 | 11.67° C | 53% | 1019.3 hPa | 0 mm | - | 71 W/m² | - |
| 1777761505 | 11.67° C | 48% | 1019.3 hPa | 0 mm | - | 74 W/m² | - |
| 1777761203 | 11.67° C | 49% | 1019.3 hPa | 0 mm | - | 69 W/m² | - |
* Rain latest hour (hover to see other rain measurements)
** Current wind speed in m/s (hover to see current wind gust speed)